sat.trackr.live / text

‹ back to catalog

FENGYUN 3C

NORAD 39260 · 2013-052A

PAYLOAD ACTIVE UNKNOWN

§ Identity

Operator
Country
PRC
Launch date
2013-09-23
Launch site
TAISC
Launch vehicle
Mass (kg)
RCS (m²)
7.44

Purposes: earth_obs

External: N2YO · Heavens-Above · Gunter

§ Orbital elements

Epoch: 2026-09-04T04:44:50.574912Z

Period
101.71 min
Inclination
98.5077°
Eccentricity
0.0015099
Mean motion
14.15769685 rev/d
Perigee alt
828.8 km
Apogee alt
850.6 km
Semi-major
7,217.8 km
B*
3.6371e-5
RAAN
217.4785°
Arg perigee
151.8608°
Mean anomaly
208.3386°
Rev number
66,974

§ Raw data

FENGYUN 3C1 39260U 13052A   26247.19780758  .00000030  00000+0  36371-4 0  99932 39260  98.5077 217.4785 0015099 151.8608 208.3386 14.15769685669749

JSON: /api/v1/satellites/39260 · /tle

For live sub-satellite position, see the globe view (requires WebGL).

§ Visibility from observer

Set your observer location to see the next 7 days of passes ≥ 10°. The values pass through the URL so the page stays shareable.

No JS? Fill the form by hand. The geolocation button needs JavaScript.

§ Radio — SatNOGS DB

ModeDescriptionDownlinkUplink
AHRPT AHRPT 1.701 GHz
AHRPT AHRPT Downlink 1.701 GHz
FM MPT 7.780 GHz
QPSK Mode X 8.175 GHz
FM S band telemetry 2.253 GHz
BPSK Telemetry 2.219 GHz

6 transmitters · refreshed weekly from db.satnogs.org